Year,Month,Day,Hour,Minute,Value (Times are PST for temperature in C)
2022,04,29,00,00,6.10
2022,04,29,00,01,6.10
2022,04,29,00,02,6.10
2022,04,29,00,03,6.10
2022,04,29,00,04,6.00
2022,04,29,00,05,6.00
2022,04,29,00,06,6.00
2022,04,29,00,07,6.00
2022,04,29,00,08,5.90
2022,04,29,00,09,5.90
2022,04,29,00,10,5.80
2022,04,29,00,11,5.80
2022,04,29,00,12,5.80
2022,04,29,00,13,5.80
2022,04,29,00,14,5.70
2022,04,29,00,15,5.70
2022,04,29,00,16,5.70
2022,04,29,00,17,5.70
2022,04,29,00,18,5.60
2022,04,29,00,19,5.60
2022,04,29,00,20,5.60
2022,04,29,00,21,5.50
2022,04,29,00,22,5.50
2022,04,29,00,23,5.40
2022,04,29,00,24,5.40
2022,04,29,00,25,5.40
2022,04,29,00,26,5.40
2022,04,29,00,27,5.30
2022,04,29,00,28,5.30
2022,04,29,00,29,5.30
2022,04,29,00,30,5.30
2022,04,29,00,31,5.30
2022,04,29,00,32,5.30
2022,04,29,00,33,5.30
2022,04,29,00,34,5.20
2022,04,29,00,35,5.20
2022,04,29,00,36,5.20
2022,04,29,00,37,5.20
2022,04,29,00,38,5.20
2022,04,29,00,39,5.10
2022,04,29,00,40,5.10
2022,04,29,00,41,5.10
2022,04,29,00,42,5.00
2022,04,29,00,43,5.00
2022,04,29,00,44,5.00
2022,04,29,00,45,4.90
2022,04,29,00,46,4.90
2022,04,29,00,47,4.90
2022,04,29,00,48,4.90
2022,04,29,00,49,4.80
2022,04,29,00,50,4.80
2022,04,29,00,51,4.80
2022,04,29,00,52,4.80
2022,04,29,00,53,4.80
2022,04,29,00,54,4.80
2022,04,29,00,55,4.80
2022,04,29,00,56,4.80
2022,04,29,00,57,4.80
2022,04,29,00,58,4.80
2022,04,29,00,59,4.80
2022,04,29,01,00,4.80
2022,04,29,01,01,4.80
2022,04,29,01,02,4.70
2022,04,29,01,03,4.70
2022,04,29,01,04,4.70
2022,04,29,01,05,4.70
2022,04,29,01,06,4.70
2022,04,29,01,07,4.70
2022,04,29,01,08,4.70
2022,04,29,01,09,4.60
2022,04,29,01,10,4.60
2022,04,29,01,11,4.60
2022,04,29,01,12,4.60
2022,04,29,01,13,4.60
2022,04,29,01,14,4.60
2022,04,29,01,15,4.60
2022,04,29,01,16,4.60
2022,04,29,01,17,4.60
2022,04,29,01,18,4.60
2022,04,29,01,19,4.60
2022,04,29,01,20,4.60
2022,04,29,01,21,4.60
2022,04,29,01,22,4.60
2022,04,29,01,23,4.70
2022,04,29,01,24,4.70
2022,04,29,01,25,4.70
2022,04,29,01,26,4.70
2022,04,29,01,27,4.70
2022,04,29,01,28,4.80
2022,04,29,01,29,4.80
2022,04,29,01,30,4.80
2022,04,29,01,31,4.80
2022,04,29,01,32,4.90
2022,04,29,01,33,4.90
2022,04,29,01,34,4.90
2022,04,29,01,35,5.00
2022,04,29,01,36,5.10
2022,04,29,01,37,5.10
2022,04,29,01,38,5.10
2022,04,29,01,39,5.20
2022,04,29,01,40,5.20
2022,04,29,01,41,5.30
2022,04,29,01,42,5.30
2022,04,29,01,43,5.40
2022,04,29,01,44,5.40
2022,04,29,01,45,5.40
2022,04,29,01,46,5.40
2022,04,29,01,47,5.40
2022,04,29,01,48,5.40
2022,04,29,01,49,5.40
2022,04,29,01,50,5.40
2022,04,29,01,51,5.40
2022,04,29,01,52,5.40
2022,04,29,01,53,5.40
2022,04,29,01,54,5.40
2022,04,29,01,55,5.40
2022,04,29,01,56,5.40
2022,04,29,01,57,5.30
2022,04,29,01,58,5.30
2022,04,29,01,59,5.30
2022,04,29,02,00,5.30
2022,04,29,02,01,5.30
2022,04,29,02,02,5.30
2022,04,29,02,03,5.30
2022,04,29,02,04,5.30
2022,04,29,02,05,5.30
2022,04,29,02,06,5.30
2022,04,29,02,07,5.30
2022,04,29,02,08,5.30
2022,04,29,02,09,5.30
2022,04,29,02,10,5.20
2022,04,29,02,11,5.20
2022,04,29,02,12,5.20
2022,04,29,02,13,5.20
2022,04,29,02,14,5.20
2022,04,29,02,15,5.20
2022,04,29,02,16,5.20
2022,04,29,02,17,5.30
2022,04,29,02,18,5.30
2022,04,29,02,19,5.30
2022,04,29,02,20,5.30
2022,04,29,02,21,5.30
2022,04,29,02,22,5.30
2022,04,29,02,23,5.30
2022,04,29,02,24,5.30
2022,04,29,02,25,5.30
2022,04,29,02,26,5.30
2022,04,29,02,27,5.30
2022,04,29,02,28,5.30
2022,04,29,02,29,5.30
2022,04,29,02,30,5.30
2022,04,29,02,31,5.30
2022,04,29,02,32,5.30
2022,04,29,02,33,5.40
2022,04,29,02,34,5.40
2022,04,29,02,35,5.40
2022,04,29,02,36,5.40
2022,04,29,02,37,5.40
2022,04,29,02,38,5.40
2022,04,29,02,39,5.40
2022,04,29,02,40,5.40
2022,04,29,02,41,5.40
2022,04,29,02,42,5.40
2022,04,29,02,43,5.40
2022,04,29,02,44,5.40
2022,04,29,02,45,5.40
2022,04,29,02,46,5.40
2022,04,29,02,47,5.40
2022,04,29,02,48,5.50
2022,04,29,02,49,5.50
2022,04,29,02,50,5.50
2022,04,29,02,51,5.50
2022,04,29,02,52,5.60
2022,04,29,02,53,5.60
2022,04,29,02,54,5.60
2022,04,29,02,55,5.60
2022,04,29,02,56,5.60
2022,04,29,02,57,5.70
2022,04,29,02,58,5.70
2022,04,29,02,59,5.70
2022,04,29,03,00,5.70
2022,04,29,03,01,5.70
2022,04,29,03,02,5.70
2022,04,29,03,03,5.70
2022,04,29,03,04,5.70
2022,04,29,03,05,5.70
2022,04,29,03,06,5.70
2022,04,29,03,07,5.70
2022,04,29,03,08,5.70
2022,04,29,03,09,5.70
2022,04,29,03,10,5.70
2022,04,29,03,11,5.70
2022,04,29,03,12,5.70
2022,04,29,03,13,5.70
2022,04,29,03,14,5.80
2022,04,29,03,15,5.80
2022,04,29,03,16,5.80
2022,04,29,03,17,5.80
2022,04,29,03,18,5.90
2022,04,29,03,19,5.90
2022,04,29,03,20,5.90
2022,04,29,03,21,5.90
2022,04,29,03,22,5.80
2022,04,29,03,23,5.80
2022,04,29,03,24,5.80
2022,04,29,03,25,5.80
2022,04,29,03,26,5.80
2022,04,29,03,27,5.80
2022,04,29,03,28,5.80
2022,04,29,03,29,5.80
2022,04,29,03,30,5.80
2022,04,29,03,31,5.80
2022,04,29,03,32,5.80
2022,04,29,03,33,5.80
2022,04,29,03,34,5.80
2022,04,29,03,35,5.80
2022,04,29,03,36,5.80
2022,04,29,03,37,5.70
2022,04,29,03,38,5.70
2022,04,29,03,39,5.70
2022,04,29,03,40,5.70
2022,04,29,03,41,5.70
2022,04,29,03,42,5.70
2022,04,29,03,43,5.70
2022,04,29,03,44,5.70
2022,04,29,03,45,5.70
2022,04,29,03,46,5.80
2022,04,29,03,47,5.80
2022,04,29,03,48,5.80
2022,04,29,03,49,5.80
2022,04,29,03,50,5.80
2022,04,29,03,51,5.80
2022,04,29,03,52,5.80
2022,04,29,03,53,5.80
2022,04,29,03,54,5.80
2022,04,29,03,55,5.80
2022,04,29,03,56,5.80
2022,04,29,03,57,5.80
2022,04,29,03,58,5.80
2022,04,29,03,59,5.80
2022,04,29,04,00,5.80
2022,04,29,04,01,5.80
2022,04,29,04,02,5.80
2022,04,29,04,03,5.80
2022,04,29,04,04,5.80
2022,04,29,04,05,5.80
2022,04,29,04,06,5.80
2022,04,29,04,07,5.80
2022,04,29,04,08,5.80
2022,04,29,04,09,5.80
2022,04,29,04,10,5.80
2022,04,29,04,11,5.80
2022,04,29,04,12,5.80
2022,04,29,04,13,5.80
2022,04,29,04,14,5.80
2022,04,29,04,15,5.80
2022,04,29,04,16,5.80
2022,04,29,04,17,5.80
2022,04,29,04,18,5.80
2022,04,29,04,19,5.80
2022,04,29,04,20,5.80
2022,04,29,04,21,5.80
2022,04,29,04,22,5.80
2022,04,29,04,23,5.80
2022,04,29,04,24,5.80
2022,04,29,04,25,5.80
2022,04,29,04,26,5.80
2022,04,29,04,27,5.80
2022,04,29,04,28,5.80
2022,04,29,04,29,5.80
2022,04,29,04,30,5.80
2022,04,29,04,31,5.80
2022,04,29,04,32,5.80
2022,04,29,04,33,5.80
2022,04,29,04,34,5.80
2022,04,29,04,35,5.90
2022,04,29,04,36,5.90
2022,04,29,04,37,5.90
2022,04,29,04,38,5.90
2022,04,29,04,39,5.90
2022,04,29,04,40,5.90
2022,04,29,04,41,5.90
2022,04,29,04,42,5.90
2022,04,29,04,43,5.90
2022,04,29,04,44,5.90
2022,04,29,04,45,5.90
2022,04,29,04,46,5.90
2022,04,29,04,47,5.90
2022,04,29,04,48,5.90
2022,04,29,04,49,5.90
2022,04,29,04,50,5.90
2022,04,29,04,51,5.90
2022,04,29,04,52,5.90
2022,04,29,04,53,5.90
2022,04,29,04,54,5.90
2022,04,29,04,55,5.90
2022,04,29,04,56,5.90
2022,04,29,04,57,5.90
2022,04,29,04,58,6.00
2022,04,29,04,59,6.00
2022,04,29,05,00,6.00
2022,04,29,05,01,6.00
2022,04,29,05,02,6.00
2022,04,29,05,03,6.00
2022,04,29,05,04,6.00
2022,04,29,05,05,6.00
2022,04,29,05,06,6.00
2022,04,29,05,07,6.00
2022,04,29,05,08,6.00
2022,04,29,05,09,6.10
2022,04,29,05,10,6.10
2022,04,29,05,11,6.10
2022,04,29,05,12,6.10
2022,04,29,05,13,6.10
2022,04,29,05,14,6.10
2022,04,29,05,15,6.10
2022,04,29,05,16,6.10
2022,04,29,05,17,6.10
2022,04,29,05,18,6.10
2022,04,29,05,19,6.10
2022,04,29,05,20,6.10
2022,04,29,05,21,6.10
2022,04,29,05,22,6.10
2022,04,29,05,23,6.10
2022,04,29,05,24,6.10
2022,04,29,05,25,6.10
2022,04,29,05,26,6.10
2022,04,29,05,27,6.10
2022,04,29,05,28,6.10
2022,04,29,05,29,6.10
2022,04,29,05,30,6.10
2022,04,29,05,31,6.10
2022,04,29,05,32,6.10
2022,04,29,05,33,6.10
2022,04,29,05,34,6.10
2022,04,29,05,35,6.10
2022,04,29,05,36,6.10
2022,04,29,05,37,6.10
2022,04,29,05,38,6.10
2022,04,29,05,39,6.10
2022,04,29,05,40,6.10
2022,04,29,05,41,6.10
2022,04,29,05,42,6.10
2022,04,29,05,43,6.10
2022,04,29,05,44,6.00
2022,04,29,05,45,6.00
2022,04,29,05,46,6.00
2022,04,29,05,47,6.00
2022,04,29,05,48,6.00
2022,04,29,05,49,5.90
2022,04,29,05,50,5.90
2022,04,29,05,51,5.90
2022,04,29,05,52,5.90
2022,04,29,05,53,5.90
2022,04,29,05,54,5.90
2022,04,29,05,55,6.00
2022,04,29,05,56,6.00
2022,04,29,05,57,6.00
2022,04,29,05,58,5.90
2022,04,29,05,59,5.90
2022,04,29,06,00,5.90
2022,04,29,06,01,5.90
2022,04,29,06,02,5.90
2022,04,29,06,03,5.90
2022,04,29,06,04,5.90
2022,04,29,06,05,5.90
2022,04,29,06,06,5.90
2022,04,29,06,07,5.90
2022,04,29,06,08,5.90
2022,04,29,06,09,5.90
2022,04,29,06,10,5.90
2022,04,29,06,11,5.80
2022,04,29,06,12,5.90
2022,04,29,06,13,5.80
2022,04,29,06,14,5.80
2022,04,29,06,15,5.90
2022,04,29,06,16,5.90
2022,04,29,06,17,5.90
2022,04,29,06,18,5.90
2022,04,29,06,19,5.90
2022,04,29,06,20,5.90
2022,04,29,06,21,5.90
2022,04,29,06,22,5.90
2022,04,29,06,23,5.90
2022,04,29,06,24,5.80
2022,04,29,06,25,5.80
2022,04,29,06,26,5.80
2022,04,29,06,27,5.80
2022,04,29,06,28,5.80
2022,04,29,06,29,5.80
2022,04,29,06,30,5.80
2022,04,29,06,31,5.80
2022,04,29,06,32,5.80
2022,04,29,06,33,5.80
2022,04,29,06,34,5.80
2022,04,29,06,35,5.80
2022,04,29,06,36,5.80
2022,04,29,06,37,5.80
2022,04,29,06,38,5.80
2022,04,29,06,39,5.80
2022,04,29,06,40,5.80
2022,04,29,06,41,5.80
2022,04,29,06,42,5.80
2022,04,29,06,43,5.80
2022,04,29,06,44,5.90
2022,04,29,06,45,5.90
2022,04,29,06,46,5.90
2022,04,29,06,47,5.90
2022,04,29,06,48,5.90
2022,04,29,06,49,5.90
2022,04,29,06,50,5.90
2022,04,29,06,51,6.00
2022,04,29,06,52,6.00
2022,04,29,06,53,6.00
2022,04,29,06,54,6.00
2022,04,29,06,55,6.00
2022,04,29,06,56,6.00
2022,04,29,06,57,6.00
2022,04,29,06,58,6.00
2022,04,29,06,59,6.00
2022,04,29,07,00,5.90
2022,04,29,07,01,5.90
2022,04,29,07,02,5.90
2022,04,29,07,03,5.90
2022,04,29,07,04,5.90
2022,04,29,07,05,6.00
2022,04,29,07,06,6.00
2022,04,29,07,07,6.10
2022,04,29,07,08,6.10
2022,04,29,07,09,6.20
2022,04,29,07,10,6.20
2022,04,29,07,11,6.20
2022,04,29,07,12,6.10
2022,04,29,07,13,6.10
2022,04,29,07,14,6.10
2022,04,29,07,15,6.10
2022,04,29,07,16,6.10
2022,04,29,07,17,6.00
2022,04,29,07,18,6.00
2022,04,29,07,19,6.00
2022,04,29,07,20,6.00
2022,04,29,07,21,6.00
2022,04,29,07,22,6.00
2022,04,29,07,23,6.00
2022,04,29,07,24,6.00
2022,04,29,07,25,6.00
2022,04,29,07,26,6.00
2022,04,29,07,27,6.00
2022,04,29,07,28,6.00
2022,04,29,07,29,6.10
2022,04,29,07,30,6.10
2022,04,29,07,31,6.00
2022,04,29,07,32,6.10
2022,04,29,07,33,6.10
2022,04,29,07,34,6.10
2022,04,29,07,35,6.10
2022,04,29,07,36,6.10
2022,04,29,07,37,6.10
2022,04,29,07,38,6.20
2022,04,29,07,39,6.20
2022,04,29,07,40,6.20
2022,04,29,07,41,6.20
2022,04,29,07,42,6.30
2022,04,29,07,43,6.30
2022,04,29,07,44,6.30
2022,04,29,07,45,6.40
2022,04,29,07,46,6.40
2022,04,29,07,47,6.50
2022,04,29,07,48,6.50
2022,04,29,07,49,6.60
2022,04,29,07,50,6.60
2022,04,29,07,51,6.70
2022,04,29,07,52,6.70
2022,04,29,07,53,6.80
2022,04,29,07,54,6.80
2022,04,29,07,55,6.80
2022,04,29,07,56,6.90
2022,04,29,07,57,6.90
2022,04,29,07,58,7.00
2022,04,29,07,59,7.00
2022,04,29,08,00,7.10
2022,04,29,08,01,7.10
2022,04,29,08,02,7.20
2022,04,29,08,03,7.20
2022,04,29,08,04,7.20
2022,04,29,08,05,7.30
2022,04,29,08,06,7.30
2022,04,29,08,07,7.30
2022,04,29,08,08,7.30
2022,04,29,08,09,7.40
2022,04,29,08,10,7.50
2022,04,29,08,11,7.50
2022,04,29,08,12,7.50
2022,04,29,08,13,7.50
2022,04,29,08,14,7.60
2022,04,29,08,15,7.60
2022,04,29,08,16,7.70
2022,04,29,08,17,7.70
2022,04,29,08,18,7.80
2022,04,29,08,19,7.90
2022,04,29,08,20,8.00
2022,04,29,08,21,8.10
2022,04,29,08,22,8.10
2022,04,29,08,23,8.20
2022,04,29,08,24,8.20
2022,04,29,08,25,8.20
2022,04,29,08,26,8.30
2022,04,29,08,27,8.30
2022,04,29,08,28,8.40
2022,04,29,08,29,8.40
2022,04,29,08,30,8.40
2022,04,29,08,31,8.40
2022,04,29,08,32,8.40
2022,04,29,08,33,8.40
2022,04,29,08,34,8.40
2022,04,29,08,35,8.40
2022,04,29,08,36,8.40
2022,04,29,08,37,8.40
2022,04,29,08,38,8.40
2022,04,29,08,39,8.40
2022,04,29,08,40,8.40
2022,04,29,08,41,8.40
2022,04,29,08,42,8.50
2022,04,29,08,43,8.50
2022,04,29,08,44,8.60
2022,04,29,08,45,8.60
2022,04,29,08,46,8.60
2022,04,29,08,47,8.70
2022,04,29,08,48,8.70
2022,04,29,08,49,8.80
2022,04,29,08,50,8.80
2022,04,29,08,51,8.80
2022,04,29,08,52,8.80
2022,04,29,08,53,8.90
2022,04,29,08,54,8.90
2022,04,29,08,55,8.90
2022,04,29,08,56,8.90
2022,04,29,08,57,8.90
2022,04,29,08,58,8.80
2022,04,29,08,59,8.80
2022,04,29,09,00,8.80
2022,04,29,09,01,8.80
2022,04,29,09,02,8.90
2022,04,29,09,03,8.90
2022,04,29,09,04,8.90
2022,04,29,09,05,8.90
2022,04,29,09,06,8.90
2022,04,29,09,07,8.90
2022,04,29,09,08,8.90
2022,04,29,09,09,8.90
2022,04,29,09,10,8.90
2022,04,29,09,11,8.90
2022,04,29,09,12,8.90
2022,04,29,09,13,8.90
2022,04,29,09,14,8.90
2022,04,29,09,15,8.90
2022,04,29,09,16,8.90
2022,04,29,09,17,8.90
2022,04,29,09,18,8.90
2022,04,29,09,19,8.90
2022,04,29,09,20,9.00
2022,04,29,09,21,9.00
2022,04,29,09,22,9.00
2022,04,29,09,23,9.10
2022,04,29,09,24,9.10
2022,04,29,09,25,9.10
2022,04,29,09,26,9.10
2022,04,29,09,27,9.20
2022,04,29,09,28,9.20
2022,04,29,09,29,9.10
2022,04,29,09,30,9.20
2022,04,29,09,31,9.20
2022,04,29,09,32,9.20
2022,04,29,09,33,9.20
2022,04,29,09,34,9.30
2022,04,29,09,35,9.30
2022,04,29,09,36,9.30
2022,04,29,09,37,9.30
2022,04,29,09,38,9.30
2022,04,29,09,39,9.30
2022,04,29,09,40,9.20
2022,04,29,09,41,9.20
2022,04,29,09,42,9.30
2022,04,29,09,43,9.30
2022,04,29,09,44,9.30
2022,04,29,09,45,9.30
2022,04,29,09,46,9.30
2022,04,29,09,47,9.30
2022,04,29,09,48,9.30
2022,04,29,09,49,9.40
2022,04,29,09,50,9.40
2022,04,29,09,51,9.30
2022,04,29,09,52,9.30
2022,04,29,09,53,9.30
2022,04,29,09,54,9.30
2022,04,29,09,55,9.40
2022,04,29,09,56,9.40
2022,04,29,09,57,9.50
2022,04,29,09,58,9.50
2022,04,29,09,59,9.60
2022,04,29,10,00,9.70
2022,04,29,10,01,9.70
2022,04,29,10,02,9.80
2022,04,29,10,03,9.90
2022,04,29,10,04,9.90
2022,04,29,10,05,10.00
2022,04,29,10,06,10.00
2022,04,29,10,07,10.00
2022,04,29,10,08,10.10
2022,04,29,10,09,10.00
2022,04,29,10,10,10.00
2022,04,29,10,11,9.90
2022,04,29,10,12,9.90
2022,04,29,10,13,9.90
2022,04,29,10,14,9.90
2022,04,29,10,15,9.80
2022,04,29,10,16,9.70
2022,04,29,10,17,9.70
2022,04,29,10,18,9.80
2022,04,29,10,19,9.80
2022,04,29,10,20,9.90
2022,04,29,10,21,10.00
2022,04,29,10,22,10.10
2022,04,29,10,23,10.00
2022,04,29,10,24,10.00
2022,04,29,10,25,9.80
2022,04,29,10,26,9.70
2022,04,29,10,27,9.70
2022,04,29,10,28,9.60
2022,04,29,10,29,9.60
2022,04,29,10,30,9.60
2022,04,29,10,31,9.70
2022,04,29,10,32,9.70
2022,04,29,10,33,9.80
2022,04,29,10,34,9.80
2022,04,29,10,35,9.80
2022,04,29,10,36,9.90
2022,04,29,10,37,10.00
2022,04,29,10,38,10.10
2022,04,29,10,39,10.20
2022,04,29,10,40,10.20
2022,04,29,10,41,10.10
2022,04,29,10,42,10.10
2022,04,29,10,43,10.20
2022,04,29,10,44,10.20
2022,04,29,10,45,10.20
2022,04,29,10,46,10.20
2022,04,29,10,47,10.20
2022,04,29,10,48,10.20
2022,04,29,10,49,10.20
2022,04,29,10,50,10.20
2022,04,29,10,51,10.20
2022,04,29,10,52,10.20
2022,04,29,10,53,10.20
2022,04,29,10,54,10.20
2022,04,29,10,55,10.30
2022,04,29,10,56,10.40
2022,04,29,10,57,10.40
2022,04,29,10,58,10.40
2022,04,29,10,59,10.30
2022,04,29,11,00,10.20
2022,04,29,11,01,10.20
2022,04,29,11,02,10.10
2022,04,29,11,03,10.10
2022,04,29,11,04,10.10
2022,04,29,11,05,10.10
2022,04,29,11,06,10.10
2022,04,29,11,07,10.10
2022,04,29,11,08,10.20
2022,04,29,11,09,10.20
2022,04,29,11,10,10.20
2022,04,29,11,11,10.10
2022,04,29,11,12,10.00
2022,04,29,11,13,9.90
2022,04,29,11,14,9.90
2022,04,29,11,15,9.80
2022,04,29,11,16,9.80
2022,04,29,11,17,9.80
2022,04,29,11,18,9.80
2022,04,29,11,19,9.80
2022,04,29,11,20,9.70
2022,04,29,11,21,9.70
2022,04,29,11,22,9.70
2022,04,29,11,23,9.70
2022,04,29,11,24,9.70
2022,04,29,11,25,9.80
2022,04,29,11,26,9.80
2022,04,29,11,27,9.80
2022,04,29,11,28,9.90
2022,04,29,11,29,9.90
2022,04,29,11,30,9.90
2022,04,29,11,31,9.90
2022,04,29,11,32,10.00
2022,04,29,11,33,10.00
2022,04,29,11,34,10.10
2022,04,29,11,35,10.10
2022,04,29,11,36,10.10
2022,04,29,11,37,10.20
2022,04,29,11,38,10.20
2022,04,29,11,39,10.20
2022,04,29,11,40,10.20
2022,04,29,11,41,10.10
2022,04,29,11,42,10.00
2022,04,29,11,43,9.90
2022,04,29,11,44,9.90
2022,04,29,11,45,9.80
2022,04,29,11,46,9.80
2022,04,29,11,47,9.80
2022,04,29,11,48,9.80
2022,04,29,11,49,9.80
2022,04,29,11,50,9.80
2022,04,29,11,51,9.80
2022,04,29,11,52,9.80
2022,04,29,11,53,9.90
2022,04,29,11,54,10.00
2022,04,29,11,55,10.10
2022,04,29,11,56,10.10
2022,04,29,11,57,10.10
2022,04,29,11,58,10.10
2022,04,29,11,59,10.20
2022,04,29,12,00,10.20
2022,04,29,12,01,10.30
2022,04,29,12,02,10.40
2022,04,29,12,03,10.50
2022,04,29,12,04,10.70
2022,04,29,12,05,10.70
2022,04,29,12,06,10.80
2022,04,29,12,07,10.90
2022,04,29,12,08,11.00
2022,04,29,12,09,11.10
2022,04,29,12,10,11.20
2022,04,29,12,11,11.30
2022,04,29,12,12,11.40
2022,04,29,12,13,11.40
2022,04,29,12,14,11.40
2022,04,29,12,15,11.40
2022,04,29,12,16,11.40
2022,04,29,12,17,11.50
2022,04,29,12,18,11.50
2022,04,29,12,19,11.60
2022,04,29,12,20,11.70
2022,04,29,12,21,11.80
2022,04,29,12,22,11.80
2022,04,29,12,23,11.90
2022,04,29,12,24,12.00
2022,04,29,12,25,12.00
2022,04,29,12,26,11.90
2022,04,29,12,27,11.90
2022,04,29,12,28,11.90
2022,04,29,12,29,11.80
2022,04,29,12,30,11.90
2022,04,29,12,31,12.00
2022,04,29,12,32,12.10
2022,04,29,12,33,12.30
2022,04,29,12,34,12.30
2022,04,29,12,35,12.30
2022,04,29,12,36,12.50
2022,04,29,12,37,12.70
2022,04,29,12,38,12.70
2022,04,29,12,39,12.60
2022,04,29,12,40,12.60
2022,04,29,12,41,12.70
2022,04,29,12,42,12.60
2022,04,29,12,43,12.60
2022,04,29,12,44,12.50
2022,04,29,12,45,12.50
2022,04,29,12,46,12.60
2022,04,29,12,47,12.60
2022,04,29,12,48,12.70
2022,04,29,12,49,12.80
2022,04,29,12,50,13.00
2022,04,29,12,51,13.10
2022,04,29,12,52,13.10
2022,04,29,12,53,13.10
2022,04,29,12,54,13.00
2022,04,29,12,55,12.90
2022,04,29,12,56,13.00
2022,04,29,12,57,13.00
2022,04,29,12,58,13.10
2022,04,29,12,59,13.10
2022,04,29,13,00,13.30
2022,04,29,13,01,13.30
2022,04,29,13,02,13.20
2022,04,29,13,03,13.10
2022,04,29,13,04,12.90
2022,04,29,13,05,12.90
2022,04,29,13,06,12.90
2022,04,29,13,07,12.90
2022,04,29,13,08,12.80
2022,04,29,13,09,12.80
2022,04,29,13,10,12.70
2022,04,29,13,11,12.60
2022,04,29,13,12,12.50
2022,04,29,13,13,12.30
2022,04,29,13,14,12.30
2022,04,29,13,15,12.30
2022,04,29,13,16,12.40
2022,04,29,13,17,12.50
2022,04,29,13,18,12.50
2022,04,29,13,19,12.50
2022,04,29,13,20,12.50
2022,04,29,13,21,12.40
2022,04,29,13,22,12.40
2022,04,29,13,23,12.50
2022,04,29,13,24,12.60
2022,04,29,13,25,12.80
2022,04,29,13,26,12.90
2022,04,29,13,27,13.10
2022,04,29,13,28,13.10
2022,04,29,13,29,13.20
2022,04,29,13,30,13.20
2022,04,29,13,31,13.20
2022,04,29,13,32,13.20
2022,04,29,13,33,13.20
2022,04,29,13,34,13.10
2022,04,29,13,35,13.10
2022,04,29,13,36,13.00
2022,04,29,13,37,12.80
2022,04,29,13,38,12.60
2022,04,29,13,39,12.50
2022,04,29,13,40,12.50
2022,04,29,13,41,12.50
2022,04,29,13,42,12.50
2022,04,29,13,43,12.60
2022,04,29,13,44,12.60
2022,04,29,13,45,12.50
2022,04,29,13,46,12.50
2022,04,29,13,47,12.40
2022,04,29,13,48,12.50
2022,04,29,13,49,12.70
2022,04,29,13,50,12.80
2022,04,29,13,51,12.80
2022,04,29,13,52,12.80
2022,04,29,13,53,12.80
2022,04,29,13,54,12.70
2022,04,29,13,55,12.80
2022,04,29,13,56,12.70
2022,04,29,13,57,12.80
2022,04,29,13,58,12.90
2022,04,29,13,59,12.90
2022,04,29,14,00,13.00
2022,04,29,14,01,13.00
2022,04,29,14,02,13.00
2022,04,29,14,03,12.90
2022,04,29,14,04,12.90
2022,04,29,14,05,12.90
2022,04,29,14,06,12.90
2022,04,29,14,07,12.90
2022,04,29,14,08,12.90
2022,04,29,14,09,12.90
2022,04,29,14,10,12.90
2022,04,29,14,11,12.90
2022,04,29,14,12,12.90
2022,04,29,14,13,12.90
2022,04,29,14,14,12.90
2022,04,29,14,15,12.90
2022,04,29,14,16,12.90
2022,04,29,14,17,12.90
2022,04,29,14,18,12.80
2022,04,29,14,19,12.80
2022,04,29,14,20,12.70
2022,04,29,14,21,12.70
2022,04,29,14,22,12.60
2022,04,29,14,23,12.60
2022,04,29,14,24,12.60
2022,04,29,14,25,12.60
2022,04,29,14,26,12.70
2022,04,29,14,27,12.70
2022,04,29,14,28,12.70
2022,04,29,14,29,12.60
2022,04,29,14,30,12.70
2022,04,29,14,31,12.70
2022,04,29,14,32,12.80
2022,04,29,14,33,12.90
2022,04,29,14,34,13.00
2022,04,29,14,35,13.10
2022,04,29,14,36,13.10
2022,04,29,14,37,13.10
2022,04,29,14,38,13.20
2022,04,29,14,39,13.30
2022,04,29,14,40,13.30
2022,04,29,14,41,13.30
2022,04,29,14,42,13.30
2022,04,29,14,43,13.30
2022,04,29,14,44,13.30
2022,04,29,14,45,13.30
2022,04,29,14,46,13.40
2022,04,29,14,47,13.50
2022,04,29,14,48,13.60
2022,04,29,14,49,13.70
2022,04,29,14,50,13.70
2022,04,29,14,51,13.70
2022,04,29,14,52,13.70
2022,04,29,14,53,13.70
2022,04,29,14,54,13.70
2022,04,29,14,55,13.80
2022,04,29,14,56,13.70
2022,04,29,14,57,13.70
2022,04,29,14,58,13.80
2022,04,29,14,59,13.80
2022,04,29,15,00,13.80
2022,04,29,15,01,13.80
2022,04,29,15,02,13.80
2022,04,29,15,03,13.80
2022,04,29,15,04,13.80
2022,04,29,15,05,13.70
2022,04,29,15,06,13.70
2022,04,29,15,07,13.70
2022,04,29,15,08,13.80
2022,04,29,15,09,13.80
2022,04,29,15,10,13.80
2022,04,29,15,11,13.70
2022,04,29,15,12,13.70
2022,04,29,15,13,13.70
2022,04,29,15,14,13.80
2022,04,29,15,15,13.80
2022,04,29,15,16,13.80
2022,04,29,15,17,13.80
2022,04,29,15,18,13.70
2022,04,29,15,19,13.60
2022,04,29,15,20,13.60
2022,04,29,15,21,13.70
2022,04,29,15,22,13.60
2022,04,29,15,23,13.60
2022,04,29,15,24,13.50
2022,04,29,15,25,13.50
2022,04,29,15,26,13.50
2022,04,29,15,27,13.50
2022,04,29,15,28,13.50
2022,04,29,15,29,13.50
2022,04,29,15,30,13.60
2022,04,29,15,31,13.60
2022,04,29,15,32,13.60
2022,04,29,15,33,13.70
2022,04,29,15,34,13.80
2022,04,29,15,35,13.90
2022,04,29,15,36,13.90
2022,04,29,15,37,13.90
2022,04,29,15,38,13.80
2022,04,29,15,39,13.80
2022,04,29,15,40,13.80
2022,04,29,15,41,13.90
2022,04,29,15,42,14.00
2022,04,29,15,43,14.10
2022,04,29,15,44,14.30
2022,04,29,15,45,14.20
2022,04,29,15,46,14.20
2022,04,29,15,47,14.20
2022,04,29,15,48,14.20
2022,04,29,15,49,14.30
2022,04,29,15,50,14.40
2022,04,29,15,51,14.40
2022,04,29,15,52,14.40
2022,04,29,15,53,14.40
2022,04,29,15,54,14.40
2022,04,29,15,55,14.40
2022,04,29,15,56,14.40
2022,04,29,15,57,14.30
2022,04,29,15,58,14.10
2022,04,29,15,59,14.00
2022,04,29,16,00,13.90
2022,04,29,16,01,13.80
2022,04,29,16,02,13.80
2022,04,29,16,03,13.90
2022,04,29,16,04,13.90
2022,04,29,16,05,14.00
2022,04,29,16,06,14.10
2022,04,29,16,07,14.10
2022,04,29,16,08,14.10
2022,04,29,16,09,14.20
2022,04,29,16,10,14.20
2022,04,29,16,11,14.20
2022,04,29,16,12,14.30
2022,04,29,16,13,14.30
2022,04,29,16,14,14.40
2022,04,29,16,15,14.40
2022,04,29,16,16,14.30
2022,04,29,16,17,14.30
2022,04,29,16,18,14.30
2022,04,29,16,19,14.20
2022,04,29,16,20,14.20
2022,04,29,16,21,14.30
2022,04,29,16,22,14.30
2022,04,29,16,23,14.20
2022,04,29,16,24,14.20
2022,04,29,16,25,14.20
2022,04,29,16,26,14.10
2022,04,29,16,27,14.00
2022,04,29,16,28,13.90
2022,04,29,16,29,13.80
2022,04,29,16,30,13.70
2022,04,29,16,31,13.60
2022,04,29,16,32,13.60
2022,04,29,16,33,13.60
2022,04,29,16,34,13.60
2022,04,29,16,35,13.60
2022,04,29,16,36,13.60
2022,04,29,16,37,13.60
2022,04,29,16,38,13.70
2022,04,29,16,39,13.80
2022,04,29,16,40,13.80
2022,04,29,16,41,13.90
2022,04,29,16,42,14.00
2022,04,29,16,43,14.10
2022,04,29,16,44,14.10
2022,04,29,16,45,14.20
2022,04,29,16,46,14.20
2022,04,29,16,47,14.20
2022,04,29,16,48,14.20
2022,04,29,16,49,14.20
2022,04,29,16,50,14.20
2022,04,29,16,51,14.20
2022,04,29,16,52,14.20
2022,04,29,16,53,14.20
2022,04,29,16,54,14.10
2022,04,29,16,55,14.00
2022,04,29,16,56,13.90
2022,04,29,16,57,13.90
2022,04,29,16,58,13.90
2022,04,29,16,59,13.90
2022,04,29,17,00,13.90
2022,04,29,17,01,13.90
2022,04,29,17,02,13.90
2022,04,29,17,03,13.90
2022,04,29,17,04,13.90
2022,04,29,17,05,13.90
2022,04,29,17,06,13.90
2022,04,29,17,07,13.90
2022,04,29,17,08,13.90
2022,04,29,17,09,13.90
2022,04,29,17,10,13.80
2022,04,29,17,11,13.80
2022,04,29,17,12,13.90
2022,04,29,17,13,13.90
2022,04,29,17,14,13.80
2022,04,29,17,15,13.80
2022,04,29,17,16,13.70
2022,04,29,17,17,13.80
2022,04,29,17,18,13.80
2022,04,29,17,19,13.80
2022,04,29,17,20,13.80
2022,04,29,17,21,13.90
2022,04,29,17,22,13.90
2022,04,29,17,23,13.90
2022,04,29,17,24,14.00
2022,04,29,17,25,14.00
2022,04,29,17,26,14.00
2022,04,29,17,27,14.00
2022,04,29,17,28,14.00
2022,04,29,17,29,14.10
2022,04,29,17,30,14.00
2022,04,29,17,31,13.90
2022,04,29,17,32,13.90
2022,04,29,17,33,14.00
2022,04,29,17,34,14.10
2022,04,29,17,35,14.00
2022,04,29,17,36,14.00
2022,04,29,17,37,14.00
2022,04,29,17,38,14.10
2022,04,29,17,39,14.20
2022,04,29,17,40,14.20
2022,04,29,17,41,14.30
2022,04,29,17,42,14.30
2022,04,29,17,43,14.30
2022,04,29,17,44,14.20
2022,04,29,17,45,14.20
2022,04,29,17,46,14.20
2022,04,29,17,47,14.20
2022,04,29,17,48,14.20